This is the latest recevied weather packets stored in our database for station/object OE6PLD-13. If no packets are shown the sender has not sent any weather packets the latest 10 day(s).
| Time | Temp. | Humidity | Pressure | Rain* | Wind** | Luminosity | Snow |
|---|---|---|---|---|---|---|---|
| 1777724243 | 25° C | 31% | 1013 hPa | 0.76 mm | - | 527 W/m² | - |
| 1777724060 | 25° C | 32% | 1013 hPa | 0.76 mm | - | 530 W/m² | - |
| 1777723875 | 23.89° C | 33% | 1013 hPa | 0.76 mm | - | 528 W/m² | - |
| 1777723691 | 24.44° C | 34% | 1013.3 hPa | 0.76 mm | - | 542 W/m² | - |
| 1777723508 | 23.89° C | 31% | 1013.2 hPa | 0.76 mm | - | 545 W/m² | - |
| 1777723324 | 23.89° C | 30% | 1013.1 hPa | 0.76 mm | - | 540 W/m² | - |
| 1777723141 | 23.89° C | 29% | 1008.9 hPa | 0.76 mm | - | 540 W/m² | - |
| 1777722958 | 23.89° C | 29% | 1008.8 hPa | 0.76 mm | - | 535 W/m² | - |
| 1777722774 | 23.89° C | 28% | 1008.8 hPa | 0.76 mm | - | 524 W/m² | - |
| 1777722591 | 23.89° C | 30% | 1008.8 hPa | 0.76 mm | - | 532 W/m² | - |
| 1777722407 | 23.89° C | 31% | 1009.1 hPa | 0.76 mm | - | 545 W/m² | - |
| 1777722224 | 23.89° C | 30% | 1009.1 hPa | 0.76 mm | - | 565 W/m² | - |
| 1777722041 | 23.89° C | 30% | 1009 hPa | 0.76 mm | - | 583 W/m² | - |
| 1777721857 | 22.78° C | 32% | 1009.1 hPa | 0.76 mm | - | 592 W/m² | - |
| 1777721674 | 23.89° C | 31% | 1009.2 hPa | 0.76 mm | - | 619 W/m² | - |
| 1777721491 | 23.33° C | 31% | 1009.3 hPa | 0.76 mm | - | 641 W/m² | - |
| 1777721307 | 23.33° C | 31% | 1009.3 hPa | 0.76 mm | - | 654 W/m² | - |
| 1777721124 | 23.33° C | 31% | 1009.3 hPa | 0.76 mm | - | 650 W/m² | - |
| 1777720940 | 23.33° C | 32% | 1009.2 hPa | 0.76 mm | - | 639 W/m² | - |
| 1777720757 | 23.89° C | 31% | 1009.3 hPa | 0.76 mm | - | 632 W/m² | - |
| 1777720574 | 23.89° C | 32% | 1009.3 hPa | 0.76 mm | - | 634 W/m² | - |
| 1777720390 | 23.33° C | 33% | 1009.2 hPa | 0.76 mm | - | 622 W/m² | - |
| 1777720207 | 23.33° C | 32% | 1009.3 hPa | 0.76 mm | - | 618 W/m² | - |
| 1777720024 | 22.78° C | 33% | 1009.6 hPa | 0.76 mm | - | 614 W/m² | - |
| 1777719840 | 22.78° C | 33% | 1009.3 hPa | 0.76 mm | - | 610 W/m² | - |
* Rain latest hour (hover to see other rain measurements)
** Current wind speed in m/s (hover to see current wind gust speed)